EW1966 Weather Reports


Display with metric or nautical units.
time (UTC)temp
F
wind
direction
speed
MPH
gust
MPH
rain 1hr
in
rain 24hr
in
rain mn
in
humidity
%
barometer
mb
20260506231510 74 288 6.0 12.0 0.00 0.00 0.00 44 1017.6
20260506230007 74 278 6.0 13.0 0.00 0.00 0.00 42 1017.6
20260506224507 75 264 5.0 8.0 0.00 0.00 0.00 42 1017.9
20260506223004 75 269 3.0 14.0 0.00 0.00 0.00 41 1018.2
20260506221503 74 291 4.0 11.0 0.00 0.00 0.00 43 1018.4
20260506220002 76 12 6.0 18.0 0.00 0.00 0.00 31 1018.5
20260506214602 77 33 3.0 7.0 0.00 0.00 0.00 34 1018.6
20260506213101 76 55 5.0 11.0 0.00 0.00 0.00 31 1018.9
20260506211558 76 68 5.0 12.0 0.00 0.00 0.00 32 1019.0
20260506210058 76 39 6.0 12.0 0.00 0.00 0.00 31 1019.1
20260506204557 76 74 4.0 9.0 0.00 0.00 0.00 33 1019.1
20260506203056 77 65 3.0 9.0 0.00 0.00 0.00 32 1019.3
20260506201554 77 56 4.0 8.0 0.00 0.00 0.00 33 1019.4
20260506200052 75 355 3.0 9.0 0.00 0.00 0.00 35 1019.6
20260506194551 74 18 0.0 5.0 0.00 0.00 0.00 36 1019.6
20260506193054 74 51 3.0 9.0 0.00 0.00 0.00 35 1019.8
20260506191548 73 323 5.0 10.0 0.00 0.00 0.00 35 1019.9
20260506190050 72 276 5.0 11.0 0.00 0.00 0.00 38 1020.1
20260506184546 72 72 3.0 10.0 0.00 0.00 0.00 41 1020.0
20260506183043 72 61 1.0 6.0 0.00 0.00 0.00 42 1020.1
20260506181556 69 62 1.0 8.0 0.00 0.00 0.00 43 1020.3
20260506180039 68 266 0.0 4.0 0.00 0.00 0.00 44 1020.3
20260506174538 67 207 0.0 9.0 0.00 0.00 0.00 48 1020.4
20260506173102 67 34 2.0 6.0 0.00 0.00 0.00 47 1020.5
20260506171541 66 352 1.0 9.0 0.00 0.00 0.00 54 1020.5
20260506170048 65 276 2.0 5.0 0.00 0.00 0.00 50 1020.4
20260506164529 64 186 1.0 4.0 0.00 0.00 0.00 51 1020.3
20260506163029 62 248 0.0 4.0 0.00 0.00 0.00 54 1020.4
20260506161524 60 288 1.0 4.0 0.00 0.00 0.00 56 1020.4
20260506160020 60 286 2.0 5.0 0.00 0.00 0.00 55 1020.5
20260506154518 58 299 0.0 2.0 0.00 0.00 0.00 65 1020.4
20260506153021 57 20 0.0 1.0 0.00 0.00 0.00 66 1020.3
20260506151513 57 29 2.0 4.0 0.00 0.00 0.00 67 1020.4
20260506150014 54 26 0.0 1.0 0.00 0.00 0.00 71 1020.3
20260506144505 53 315 0.0 2.0 0.00 0.00 0.00 72 1020.3
20260506143003 52 56 0.0 1.0 0.00 0.00 0.00 74 1020.2
20260506141503 52 55 1.0 3.0 0.00 0.00 0.00 74 1020.1
20260506140100 51 80 0.0 2.0 0.00 0.00 0.00 78 1020.1
20260506134557 48 248 1.0 3.0 0.00 0.00 0.00 78 1019.9
20260506133114 47 207 2.0 4.0 0.00 0.00 0.00 80 1019.8
20260506131553 45 226 1.0 4.0 0.00 0.00 0.00 82 1019.6
20260506130114 45 245 0.0 3.0 0.00 0.00 0.00 83 1019.5
20260506124552 45 214 0.0 4.0 0.00 0.00 0.00 83 1019.6
20260506123051 45 243 0.0 1.0 0.00 0.00 0.00 82 1019.6
20260506121548 45 163 1.0 2.0 0.00 0.00 0.00 82 1019.2
20260506120047 46 107 0.0 5.0 0.00 0.00 0.00 80 1019.3
20260506114548 47 278 3.0 10.0 0.00 0.00 0.00 78 1019.1
20260506113046 46 214 4.0 10.0 0.00 0.00 0.00 80 1019.1
20260506111544 47 227 5.0 11.0 0.00 0.00 0.00 80 1019.0
20260506110046 46 229 6.0 13.0 0.00 0.00 0.00 81 1019.0
20260506104607 48 274 6.0 13.0 0.00 0.00 0.00 78 1019.0
20260506103043 47 290 9.0 17.0 0.00 0.00 0.00 78 1018.8
20260506101547 48 249 11.0 20.0 0.00 0.00 0.00 78 1018.9
20260506100043 47 265 11.0 19.0 0.00 0.00 0.00 80 1019.0
20260506094539 47 241 9.0 21.0 0.00 0.00 0.00 83 1019.0
20260506093036 46 244 11.0 18.0 0.00 0.00 0.00 84 1019.0
20260506091534 46 264 11.0 18.0 0.00 0.00 0.00 84 1018.9
20260506090042 46 285 12.0 20.0 0.00 0.00 0.00 84 1019.3
20260506084536 46 244 12.0 18.0 0.00 0.00 0.00 84 1019.4
20260506083039 46 277 13.0 24.0 0.00 0.00 0.00 84 1019.3
20260506081528 46 257 12.0 21.0 0.00 0.00 0.00 83 1019.2
20260506073025 46 243 12.0 19.0 0.00 0.00 0.00 83 1019.2
20260506071525 46 241 12.0 19.0 0.00 0.00 0.00 83 1019.2
20260506061516 46 252 10.0 17.0 0.00 0.00 0.00 84 1018.6
20260506044511 47 271 9.0 17.0 0.00 0.00 0.00 82 1018.4
20260506043014 47 238 10.0 17.0 0.00 0.00 0.00 83 1017.9
20260506041509 47 256 9.0 14.0 0.00 0.00 0.00 84 1018.1
20260506040008 47 280 8.0 16.0 0.00 0.00 0.00 83 1018.0
20260506034507 47 264 11.0 15.0 0.00 0.00 0.00 83 1017.5
20260506033006 48 240 10.0 15.0 0.00 0.00 0.00 83 1017.5
20260506031503 48 260 9.0 15.0 0.00 0.00 0.00 81 1017.4
20260506030002 48 269 11.0 18.0 0.00 0.00 0.00 80 1017.2
20260506024700 48 269 7.0 12.0 0.00 0.00 0.00 79 1017.0
20260506023059 49 219 7.0 14.0 0.00 0.00 0.00 78 1016.8
20260506021605 49 245 9.0 17.0 0.00 0.00 0.00 78 1016.5
20260506020058 50 234 9.0 15.0 0.00 0.00 0.00 77 1016.6
20260506014559 50 259 9.0 15.0 0.00 0.00 0.00 76 1016.4
20260506013057 51 259 8.0 14.0 0.00 0.00 0.00 75 1016.3
20260506011556 51 252 10.0 16.0 0.00 0.00 0.00 74 1016.4
20260506010058 52 231 10.0 16.0 0.00 0.00 0.00 73 1016.4
20260506004555 54 264 11.0 16.0 0.00 0.00 0.00 70 1016.1
20260506003103 53 261 9.0 20.0 0.00 0.00 0.00 72 1016.1
20260506001605 53 244 12.0 18.0 0.00 0.00 0.00 70 1015.8
20260506000053 56 294 9.0 15.0 0.00 0.00 0.00 65 1016.0
20260505234609 56 271 11.0 21.0 0.00 0.00 0.00 65 1015.7
20260505233051 57 233 10.0 20.0 0.00 0.00 0.00 63 1015.5
20260505231551 57 232 9.0 15.0 0.00 0.00 0.00 62 1015.5